{"data":{"norad_id":53558,"epoch":"2026-09-20T12:50:08.280384Z","epoch_age_seconds":76072,"freshness":"FRESH","line1":"1 53558U 22101AH  26263.53481806  .00000713  00000+0  32228-4 0  9997","line2":"2 53558  53.1595 253.6960 0001201  86.2157 273.8983 15.34393813226594","mean_motion":15.34393813,"eccentricity":0.0001201,"inclination_deg":53.1595,"raan_deg":253.696,"arg_perigee_deg":86.2157,"mean_anomaly_deg":273.8983,"bstar":3.2228e-5,"rev_number":22659,"period_min":93.848136495321,"perigee_km":461.90004221536,"apogee_km":463.54321645813,"semimajor_km":6840.8586293367,"source":"CELESTRAK","updated_at":"2026-09-21T09:00:32.927125Z"}}